Cape Girardeau, MO

7:47 PM CDT on May 26, 2017 (GMT -0500)
Cape Girardeau Regional

Weather History for KCGI - September, 2012

Change the Weather History Date:

Sunday, September 16, 2012

  Actual Average Record
Temperature  
Mean Temperature 70 °F 69 °F  
Max Temperature 76 °F 81 °F 91 °F (1972)
Min Temperature 64 °F 56 °F 41 °F (2000)
Degree Days  
Heating Degree Days 0 1  
Month to date heating degree days 1 6  
Since 1 July heating degree days 1 7  
Cooling Degree Days 5 5  
Month to date cooling degree days 122 114  
Year to date cooling degree days 1738 1374  
Growing Degree Days 20 (Base 50)    
Moisture  
Dew Point 64 °F    
Average Humidity 81    
Maximum Humidity 93    
Minimum Humidity 69    
Precipitation  
Precipitation 0.91 in 0.11 in 1.50 in (1987)
Month to date precipitation 4.34 1.79  
Year to date precipitation 19.52 32.84  
Sea Level Pressure  
Sea Level Pressure 30.08 in    
Wind  
Wind Speed 2 mph (East)    
Max Wind Speed 6 mph    
Max Gust Speed 17 mph    
Visibility 5 miles    
Events Rain    
T = Trace of Precipitation, MM = Missing Value Source: NWS Daily Summary

Daily Weather History Graph

Daily Weather History Graph

Search for Another Location

Airport or City:

Trip Planner

Search our weather history database for the weather conditions in past years. The results will help you decide how hot, cold, wet, or windy it might be!

Date:

Astronomy

Sep. 16, 2012 Rise Set
Actual Time 6:41 AM CDT 7:03 PM CDT
Civil Twilight 6:15 AM CDT 7:29 PM CDT
Nautical Twilight 5:44 AM CDT 8:00 PM CDT
Astronomical Twilight 5:13 AM CDT 8:31 PM CDT
Moon 7:18 AM CDT (9/16) 7:11 PM CDT (9/16)
Length of Visible Light 13h 14m
Length of Day
12h 22m
New Moon, 0% of the Moon is Illuminated
Sep 16
New Moon
Sep 22
First Quarter
Sep 29
Full
Oct 8
Last Quarter
Oct 15
New

Hourly Weather History & Observations

Time (CDT) Temp. Dew Point Humidity Pressure Visibility Wind Dir Wind Speed Gust Speed Precip Events Conditions
12:53 AM 64.0 °F 62.1 °F 93% 30.12 in 8.0 mi Calm Calm - 0.01 in   Overcast
1:53 AM 64.9 °F 62.1 °F 90% 30.11 in 10.0 mi ENE 4.6 mph - N/A   Overcast
2:53 AM 64.9 °F 63.0 °F 93% 30.10 in 7.0 mi Calm Calm - N/A   Overcast
3:53 AM 64.0 °F 63.0 °F 96% 30.09 in 3.0 mi Calm Calm - 0.06 in Rain Rain
4:32 AM 64.4 °F 62.6 °F 94% 30.09 in 2.0 mi ESE 3.5 mph - 0.11 in Rain Heavy Rain
4:48 AM 64.4 °F 62.6 °F 94% 30.09 in 1.2 mi East 4.6 mph - 0.29 in Rain Heavy Rain
4:53 AM 64.0 °F 63.0 °F 96% 30.09 in 1.8 mi ESE 3.5 mph - 0.32 in Rain Heavy Rain
5:10 AM 64.4 °F 62.6 °F 94% 30.09 in 1.2 mi ENE 3.5 mph - 0.18 in Rain Heavy Rain
5:19 AM 64.4 °F 62.6 °F 94% 30.10 in 3.0 mi ENE 3.5 mph - N/A Rain Light Rain
5:34 AM 64.4 °F 62.6 °F 94% 30.10 in 4.0 mi Calm Calm - 0.18 in   Overcast
5:53 AM 64.0 °F 63.0 °F 96% 30.09 in 4.0 mi Calm Calm - 0.18 in   Overcast
6:00 AM 64.4 °F 62.6 °F 94% 30.10 in 4.0 mi Calm Calm - N/A   Overcast
6:37 AM 64.4 °F 62.6 °F 94% 30.10 in 3.0 mi East 4.6 mph - 0.00 in   Overcast
6:53 AM 64.4 °F 62.6 °F 94% 30.10 in 4.0 mi East 3.5 mph - N/A   Overcast
7:02 AM 64.4 °F 62.6 °F 94% 30.10 in 3.0 mi Calm Calm - N/A   Overcast
7:05 AM 64.4 °F 62.6 °F 94% 30.10 in 3.0 mi Calm Calm - N/A   Overcast
7:14 AM 64.4 °F 62.6 °F 94% 30.10 in 2.0 mi Calm Calm - N/A   Overcast
7:26 AM 64.4 °F 62.6 °F 94% 30.10 in 3.0 mi Calm Calm - N/A   Overcast
7:53 AM 66.0 °F 64.0 °F 93% 30.10 in 5.0 mi Calm Calm - 0.00 in   Overcast
8:00 AM 66.2 °F 64.4 °F 94% 30.11 in 5.0 mi ENE 3.5 mph - N/A   Overcast
8:12 AM 66.2 °F 64.4 °F 94% 30.11 in 5.0 mi NE 3.5 mph - N/A   Overcast
8:53 AM 66.0 °F 64.0 °F 93% 30.11 in 5.0 mi ENE 3.5 mph - 0.01 in   Mostly Cloudy
9:53 AM 66.0 °F 64.0 °F 93% 30.11 in 4.0 mi NE 4.6 mph - 0.00 in Rain Light Rain
10:00 AM 66.2 °F 64.4 °F 94% 30.11 in 5.0 mi NE 4.6 mph - 0.00 in Rain Light Rain
10:23 AM 66.2 °F 64.4 °F 94% 30.11 in 1.8 mi ENE 4.6 mph - 0.04 in Rain Heavy Rain
10:53 AM 66.9 °F 64.9 °F 93% 30.11 in 2.0 mi Calm Calm - 0.13 in Rain Light Rain
11:12 AM 66.2 °F 64.4 °F 94% 30.11 in 1.2 mi Calm Calm - 0.04 in Rain Rain
11:22 AM 66.2 °F 64.4 °F 94% 30.11 in 1.2 mi Calm Calm - N/A Rain Rain
11:26 AM 66.2 °F 64.4 °F 94% 30.10 in 1.5 mi East 3.5 mph - 0.08 in Rain Light Rain
11:32 AM 66.2 °F 64.4 °F 94% 30.10 in 3.0 mi Calm Calm - 0.08 in Rain Light Rain
11:49 AM 66.2 °F 64.4 °F 94% 30.10 in 1.8 mi Calm Calm - 0.11 in Rain Rain
11:53 AM 66.9 °F 64.9 °F 93% 30.09 in 2.0 mi ESE 3.5 mph - 0.12 in Rain Light Rain
12:03 PM 68.0 °F 66.2 °F 94% 30.09 in 5.0 mi East 4.6 mph - 0.00 in Rain Light Rain
12:10 PM 68.0 °F 66.2 °F 94% 30.08 in 7.0 mi ENE 5.8 mph - 0.00 in   Overcast
12:53 PM 72.0 °F 66.9 °F 84% 30.06 in 10.0 mi ENE 3.5 mph - 0.00 in   Mostly Cloudy
1:53 PM 73.9 °F 66.0 °F 76% 30.05 in 10.0 mi ESE 3.5 mph - N/A   Mostly Cloudy
2:53 PM 73.0 °F 64.9 °F 76% 30.04 in 10.0 mi Calm Calm - N/A   Overcast
3:18 PM 73.4 °F 64.4 °F 73% 30.03 in 10.0 mi East 3.5 mph - N/A   Overcast
3:53 PM 75.0 °F 64.9 °F 71% 30.01 in 10.0 mi ENE 3.5 mph - N/A   Overcast
4:53 PM 75.0 °F 66.0 °F 73% 30.00 in 10.0 mi East 5.8 mph - N/A   Mostly Cloudy
5:53 PM 73.9 °F 66.0 °F 76% 30.00 in 10.0 mi NNE 4.6 mph - N/A   Partly Cloudy
6:53 PM 72.0 °F 66.9 °F 84% 29.99 in 9.0 mi Calm Calm - N/A   Overcast
7:53 PM 71.1 °F 66.9 °F 87% 29.99 in 8.0 mi Calm Calm - N/A   Overcast
8:53 PM 69.1 °F 66.0 °F 90% 30.00 in 8.0 mi East 3.5 mph - N/A   Scattered Clouds
9:53 PM 69.1 °F 66.0 °F 90% 30.00 in 7.0 mi Calm Calm - N/A   Mostly Cloudy
10:53 PM 68.0 °F 66.0 °F 93% 30.00 in 6.0 mi Calm Calm - N/A   Overcast
11:53 PM 69.1 °F 66.9 °F 93% 29.99 in 4.0 mi East 3.5 mph - 0.07 in Rain Light Rain